Weather in Kyrnasivka

Ukraine / Vinnytsia Region     48°35′33″N   28°58′48″E
temp.,
°C
wind,
m/s
gust,
m/s
humid.,
%
clouds,
%
prec.,
mm/h
press.,
hPa
HPBL,
m
17 october, sun
sun1700:00+8n3782100 0.0 1020222
03:00+8n488497 0.0 1020248
06:00+6nnw379321 0.0 1020147
09:00+7n368273 0.0 1021270
12:00+11nnw34537 0.0 10211052
15:00+12nnw444610 0.0 10201354
18:00+8nnw356359 0.0 1021120
21:00+6n12735 0.0 102210
18 october, mon
mon1800:00+5nw22775 0.0 102216
03:00+3nw228011 0.0 102317
06:00+3wnw2283100 0.0 102224
09:00+5wnw3570100 0.0 1023173
12:00+10wnw4648100 0.0 1022838
15:00+12wnw6844100 0.0 10211510
18:00+10nw4853100 0.0 1022250
21:00+8nw3870100 0.0 1023430
19 october, tue
tue1900:00+8nw597492 0.0 1023907
03:00+7wnw6127596 0.0 1023577
06:00+5nw41090100 0.3 1025440
09:00+6nw496635 0.8 1026601
12:00+9nnw56415 0.0 10281356
15:00+11nw56295 0.0 10271772
18:00+8nnw22395 0.0 102715
21:00+5nnw224997 0.0 102916
20 october, wed
wed2000:00+4wnw1153100 0.0 102910
03:00+4ssw1152100 0.0 102910
06:00+5ssw2250100 0.0 102829
09:00+6ssw345021 0.0 1027124
12:00+13ssw564594 0.0 1026732
15:00+15ssw6741100 0.0 10231066
18:00+12s475194 0.0 1022128
21:00+11s51357100 0.0 1021304
21 october, thu
thu2100:00+10s5136692 0.0 1020293
03:00+8s51180100 0.0 1019234
06:00+7s5119280 0.0 1018225
09:00+9s61179100 0.0 1018295
12:00+14s7105398 0.0 1016535
15:00+18ssw71039100 0.0 1014908
18:00+15ssw4743100 0.0 1013104
21:00+13ssw4849100 0.0 1012128